This is the latest recevied weather packets stored in our database for station/object AK4NG. If no packets are shown the sender has not sent any weather packets the latest 10 day(s).
| Time | Temp. | Humidity | Pressure | Rain* | Wind** | Luminosity | Snow |
|---|---|---|---|---|---|---|---|
| 1777418743 | 18.33° C | 96% | 1018.5 hPa | 3.05 mm | - | 5 W/m² | - |
| 1777418440 | 18.33° C | 96% | 1018.6 hPa | 4.83 mm | - | 6 W/m² | - |
| 1777418136 | 18.89° C | 95% | 1017.4 hPa | 3.05 mm | - | 4 W/m² | - |
| 1777417833 | 18.89° C | 94% | 1018.4 hPa | 3.05 mm | - | 4 W/m² | - |
| 1777417532 | 18.89° C | 94% | 1019.1 hPa | 3.05 mm | - | 4 W/m² | - |
| 1777417230 | 18.89° C | 94% | 1019 hPa | 3.05 mm | - | 6 W/m² | - |
| 1777416925 | 18.89° C | 93% | 1018.7 hPa | 1.78 mm | - | 6 W/m² | - |
| 1777416620 | 18.89° C | 93% | 1018.8 hPa | 0 mm | - | 7 W/m² | - |
| 1777416317 | 18.89° C | 93% | 1018.7 hPa | 0 mm | - | 14 W/m² | - |
| 1777416016 | 18.89° C | 93% | 1018.4 hPa | 0 mm | - | 29 W/m² | - |
| 1777415712 | 19.44° C | 94% | 1018.9 hPa | 0 mm | - | 26 W/m² | - |
| 1777415408 | 19.44° C | 93% | 1019.1 hPa | 0 mm | - | 17 W/m² | - |
| 1777415107 | 19.44° C | 93% | 1019 hPa | 0 mm | - | 27 W/m² | - |
| 1777414803 | 19.44° C | 93% | 1019 hPa | 0 mm | - | 31 W/m² | - |
| 1777414498 | 19.44° C | 93% | 1019 hPa | 0 mm | - | 27 W/m² | - |
| 1777414197 | 19.44° C | 93% | 1019 hPa | 0 mm | - | 54 W/m² | - |
| 1777413893 | 19.44° C | 94% | 1019 hPa | 0 mm | - | 69 W/m² | - |
| 1777413589 | 19.44° C | 93% | 1019.3 hPa | 0 mm | - | 71 W/m² | - |
| 1777413285 | 19.44° C | 93% | 1019.3 hPa | 0 mm | - | 59 W/m² | - |
| 1777412981 | 19.44° C | 92% | 1019.5 hPa | 0 mm | - | 44 W/m² | - |
| 1777412679 | 19.44° C | 91% | 1019.2 hPa | 1.27 mm | - | 93 W/m² | - |
| 1777412378 | 19.44° C | 90% | 1019.4 hPa | 1.27 mm | - | 83 W/m² | - |
| 1777412072 | 19.44° C | 88% | 1019.7 hPa | 1.78 mm | - | 51 W/m² | - |
| 1777411767 | 20° C | 88% | 1019.7 hPa | 1.78 mm | - | 40 W/m² | - |
| 1777411462 | 20° C | 86% | 1019.8 hPa | 1.78 mm | - | 41 W/m² | - |
* Rain latest hour (hover to see other rain measurements)
** Current wind speed in m/s (hover to see current wind gust speed)